Palacios, TX

10:01 AM CDT on March 24, 2017 (GMT -0500)
Palacios Municipal

Weather History for KPSX - December, 2011

Change the Weather History Date:

Friday, December 30, 2011

  Actual Average Record
Temperature  
Mean Temperature 55 °F -  
Max Temperature 66 °F 64 °F 79 °F (1971)
Min Temperature 44 °F 45 °F 17 °F (1983)
Degree Days  
Heating Degree Days 10    
Growing Degree Days 5 (Base 50)    
Moisture  
Dew Point 56 °F    
Average Humidity 99    
Maximum Humidity 100    
Minimum Humidity 84    
Precipitation  
Precipitation 0.00 in - - ()
Sea Level Pressure  
Sea Level Pressure 29.98 in    
Wind  
Wind Speed 4 mph (South)    
Max Wind Speed 12 mph    
Max Gust Speed -    
Visibility 4 miles    
Events Fog    
Averages and records for this station are not official NWS values.
T = Trace of Precipitation, MM = Missing Value Source: NWS Daily Summary

Daily Weather History Graph

Daily Weather History Graph

Search for Another Location

Airport or City:

Trip Planner

Search our weather history database for the weather conditions in past years. The results will help you decide how hot, cold, wet, or windy it might be!

Date:

Astronomy

Dec. 30, 2011 Rise Set
Actual Time 7:17 AM CST 5:37 PM CST
Civil Twilight 6:51 AM CST 6:03 PM CST
Nautical Twilight 6:22 AM CST 6:33 PM CST
Astronomical Twilight 5:53 AM CST 7:01 PM CST
Moon 11:08 AM CST (12/30) 11:40 PM CST (12/30)
Length of Visible Light 11h 12m
Length of Day
10h 20m
Waxing Crescent, 36% of the Moon is Illuminated
Dec 30
Waxing Crescent
Jan 1
First Quarter
Jan 9
Full
Jan 16
Last Quarter
Jan 23
New

Hourly Weather History & Observations

Time (CST) Temp. Windchill Dew Point Humidity Pressure Visibility Wind Dir Wind Speed Gust Speed Precip Events Conditions
12:53 AM 53.1 °F - 53.1 °F 100% 29.93 in 10.0 mi South 4.6 mph - N/A   Clear
1:40 AM 50.0 °F - 50.0 °F 100% 29.93 in 1.8 mi Calm Calm - N/A   Clear
1:50 AM 50.0 °F - 50.0 °F 100% 29.93 in 3.0 mi South 3.5 mph - N/A   Clear
1:53 AM 51.1 °F - 51.1 °F 100% 29.93 in 7.0 mi SSW 3.5 mph - N/A   Clear
2:13 AM 51.8 °F - 51.8 °F 100% 29.93 in 1.8 mi Calm Calm - N/A   Clear
2:24 AM 48.2 °F - 48.2 °F 100% 29.93 in 0.2 mi Calm Calm - N/A Fog Fog
2:53 AM 48.9 °F - 48.9 °F 100% 29.93 in 0.5 mi Calm Calm - N/A Fog Fog
3:18 AM 44.6 °F - 44.6 °F 100% 29.93 in 0.5 mi Calm Calm - N/A Fog Fog
3:51 AM 46.4 °F - 46.4 °F 100% 29.93 in 0.2 mi Calm Calm - N/A Fog Fog
3:53 AM 45.0 °F - 45.0 °F 100% 29.93 in 0.2 mi Calm Calm - N/A Fog Fog
4:34 AM 44.6 °F 43.1 °F 44.6 °F 100% 29.94 in 0.5 mi WSW 3.5 mph - N/A Fog Fog
4:45 AM 46.4 °F - 46.4 °F 100% 29.94 in 0.5 mi Calm Calm - N/A Fog Fog
4:53 AM 46.9 °F - 46.9 °F 100% 29.94 in 0.2 mi Calm Calm - N/A Fog Fog
5:53 AM 50.0 °F - 50.0 °F 100% 29.95 in 0.2 mi SW 3.5 mph - N/A Fog Fog
6:45 AM 46.4 °F 45.2 °F 46.4 °F 100% 29.96 in 0.5 mi SSW 3.5 mph - N/A Fog Fog
6:53 AM 50.0 °F - 48.9 °F 96% 29.96 in 0.5 mi SW 3.5 mph - N/A Fog Fog
7:09 AM 48.2 °F - 48.2 °F 100% 29.97 in 0.5 mi Calm Calm - N/A Fog Fog
7:41 AM 46.4 °F 45.2 °F 46.4 °F 100% 30.00 in 2.0 mi NW 3.5 mph - N/A   Overcast
7:48 AM 48.2 °F - 48.2 °F 100% 30.01 in 7.0 mi NW 4.6 mph - N/A   Overcast
7:53 AM 50.0 °F - 50.0 °F 100% 30.01 in 8.0 mi NNW 4.6 mph - N/A   Overcast
8:48 AM 55.4 °F - 55.4 °F 100% 30.03 in 8.0 mi WNW 5.8 mph - N/A   Scattered Clouds
8:53 AM 55.9 °F - 55.9 °F 100% 30.03 in 7.0 mi WNW 4.6 mph - N/A   Mostly Cloudy
9:10 AM 55.4 °F - 55.4 °F 100% 30.03 in 8.0 mi NW 3.5 mph - N/A   Mostly Cloudy
9:34 AM 55.4 °F - 55.4 °F 100% 30.04 in 10.0 mi Calm Calm - N/A   Mostly Cloudy
9:51 AM 57.2 °F - 57.2 °F 100% 30.04 in 10.0 mi Calm Calm - N/A   Mostly Cloudy
9:53 AM 59.0 °F - 59.0 °F 100% 30.04 in 10.0 mi Calm Calm - N/A   Mostly Cloudy
11:53 AM 62.6 °F - 62.6 °F 100% 30.02 in 8.0 mi WSW 8.1 mph - N/A   Overcast
1:24 PM 66.2 °F - 62.6 °F 88% 29.98 in 10.0 mi South 5.8 mph - N/A   Scattered Clouds
1:45 PM 66.2 °F - 62.6 °F 88% 29.98 in 10.0 mi South 5.8 mph - N/A   Mostly Cloudy
1:53 PM 66.9 °F - 62.1 °F 84% 29.98 in 10.0 mi South 8.1 mph - N/A   Mostly Cloudy
2:02 PM 66.2 °F - 62.6 °F 88% 29.97 in 10.0 mi South 8.1 mph - N/A   Scattered Clouds
2:53 PM 64.9 °F - 63.0 °F 93% 29.97 in 9.0 mi SSW 8.1 mph - N/A   Clear
3:00 PM 64.4 °F - 62.6 °F 94% 29.97 in 6.0 mi South 6.9 mph - N/A   Scattered Clouds
3:44 PM 62.6 °F - 62.6 °F 100% 29.98 in 2.5 mi SSE 9.2 mph - N/A   Mostly Cloudy
3:53 PM 63.0 °F - 63.0 °F 100% 29.98 in 3.0 mi SSE 10.4 mph - N/A   Mostly Cloudy
3:59 PM 62.6 °F - 62.6 °F 100% 29.98 in 1.5 mi SSE 11.5 mph - N/A   Overcast
4:07 PM 62.6 °F - 62.6 °F 100% 29.99 in 0.2 mi South 11.5 mph - N/A Fog Fog
4:42 PM 62.6 °F - 62.6 °F 100% 29.99 in 1.0 mi South 6.9 mph - N/A   Overcast
4:50 PM 62.6 °F - 62.6 °F 100% 30.00 in 0.2 mi SSE 6.9 mph - N/A Fog Fog
4:53 PM 62.1 °F - 62.1 °F 100% 30.00 in 0.2 mi SSE 8.1 mph - N/A Fog Fog
5:53 PM 63.0 °F - 63.0 °F 100% 30.00 in 0.5 mi SSE 8.1 mph - N/A Fog Fog
6:53 PM 63.0 °F - 63.0 °F 100% 30.01 in 0.5 mi SSE 4.6 mph - N/A Fog Fog
7:53 PM 63.0 °F - 63.0 °F 100% 30.02 in 0.8 mi SE 5.8 mph - N/A   Mist
8:53 PM 63.0 °F - 63.0 °F 100% 30.04 in 0.2 mi East 3.5 mph - N/A Fog Fog
9:53 PM 63.0 °F - 63.0 °F 100% 30.05 in 0.2 mi ENE 3.5 mph - N/A Fog Fog
10:53 PM 63.0 °F - 63.0 °F 100% 30.04 in 0.2 mi ESE 4.6 mph - N/A Fog Fog
11:53 PM 63.0 °F - 63.0 °F 100% 30.03 in 0.5 mi SE 6.9 mph - N/A Fog Fog